This is the latest recevied weather packets stored in our database for station/object DL7KST-13. If no packets are shown the sender has not sent any weather packets the latest 10 day(s).
| Time | Temp. | Humidity | Pressure | Rain* | Wind** | Luminosity | Snow |
|---|---|---|---|---|---|---|---|
| 1777768108 | 8.33° C | 76% | 1005.1 hPa | 0 mm | 0.45 m/s, 44° | - | - |
| 1777766904 | 8.33° C | 79% | 1005.2 hPa | 0 mm | 0.45 m/s, 60° | - | - |
| 1777765698 | 8.33° C | 77% | 1005.3 hPa | 0 mm | 0.89 m/s, 79° | - | - |
| 1777764493 | 8.89° C | 76% | 1005.4 hPa | 0 mm | 0.45 m/s, 82° | - | - |
| 1777763289 | 8.89° C | 78% | 1005.7 hPa | 0 mm | 0.45 m/s, 76° | - | - |
| 1777762083 | 8.89° C | 75% | 1005.8 hPa | 0 mm | 0.45 m/s, 119° | - | - |
| 1777760878 | 9.44° C | 73% | 1005.9 hPa | 0 mm | 0.45 m/s, 54° | - | - |
| 1777759709 | 10° C | 73% | 1005.9 hPa | 0 mm | 0.45 m/s, 48° | - | - |
| 1777759672 | 10° C | 73% | 1005.9 hPa | 0 mm | 0.45 m/s, 48° | - | - |
| 1777758468 | 10° C | 71% | 1006 hPa | 0 mm | 0.45 m/s, 119° | - | - |
| 1777757263 | 10.56° C | 70% | 1006.2 hPa | 0 mm | 0 m/s | - | - |
| 1777756109 | 11.11° C | 68% | 1006.3 hPa | 0 mm | 0.45 m/s, 52° | - | - |
| 1777756058 | 11.11° C | 68% | 1006.3 hPa | 0 mm | 0.45 m/s, 52° | - | - |
| 1777754853 | 11.67° C | 66% | 1006.6 hPa | 0 mm | 0.45 m/s, 56° | - | - |
| 1777753649 | 12.22° C | 64% | 1006.6 hPa | 0 mm | 0 m/s | - | - |
| 1777752487 | 12.78° C | 62% | 1006.5 hPa | 0 mm | 0.45 m/s, 63° | - | - |
| 1777752443 | 12.78° C | 62% | 1006.5 hPa | 0 mm | 0.45 m/s, 63° | - | - |
| 1777751275 | 13.33° C | 59% | 1006.7 hPa | 0 mm | 0 m/s | - | - |
| 1777751237 | 13.33° C | 59% | 1006.7 hPa | 0 mm | 0 m/s | - | - |
| 1777750033 | 14.44° C | 55% | 1006.8 hPa | 0 mm | 0 m/s | - | - |
| 1777748828 | 15.56° C | 49% | 1006.8 hPa | 0 mm | 0.45 m/s, 58° | - | - |
| 1777747623 | 17.22° C | 43% | 1006.7 hPa | 0 mm | 0 m/s | - | - |
| 1777746420 | 18.89° C | 38% | 1006.8 hPa | 0 mm | 0 m/s | - | - |
| 1777745245 | 20.56° C | 34% | 1006.7 hPa | 0 mm | 0 m/s | - | - |
| 1777745214 | 20.56° C | 34% | 1006.7 hPa | 0 mm | 0 m/s | - | - |
* Rain latest hour (hover to see other rain measurements)
** Current wind speed in m/s (hover to see current wind gust speed)